Location: Albuquerque Trailhead
(34.7934°N, 106.3736°W)
Time: 00:45:11
(UTC+00:00)

Cosmos 1867 - Pass Details

Date: 20 June 2021
Orbit: 773 x 803 km, 65.0° (Epoch: 01 August)

Event Time Altitude Azimuth Distance (km) Brightness Sun altitude
Rises 06:16:35 0° 326° (NW) 3,315 7.8 -30.5°
Reaches altitude 10° 06:19:03 10° 322° (NW) 2,381 6.8 -30.7°
Enters shadow 06:23:03 44° 293° (WNW) 1,097 4.4 -30.8°
